Volver al catálogo

FENGYUN 1C DEB

ActivoSSO
NORAD 29872·DEBRIS·🇨🇳 China

Lanzado May 10, 1999 desde Taiyuan Satellite Launch Center

Loading…

Próximos Pases (próximas 24 horas)

TLE

ActualizadoSource: Space-Track

Época: Sep 13, 2026, 23:40 UTC

1 29872U 99025FS  26256.98657192  .00000917  00000-0  22396-3 0  9993
2 29872  98.3353 270.8824 0232406 204.8087 154.1785 14.40020058 25516

Sigue FENGYUN 1C DEB en tiempo real con AllMySat

Download on the App Store